[[{"header":{"parameterUnit":"m.s-1","parameterCategory":1,"la1":30.2991,"la2":30.254,"lo1":-89.0895,"lo2":-89.0444,"dy":0.0017,"dx":0.0017,"nx":28,"ny":28,"refTime":"2025-06-21T09:00:00:Z","depth":0,"parameterNumber":2,"parameterNumberName":"U-component_of_WINDS"},"data":[0,0,0,0,0,0,0,0,0,0,0,0,0,0,0,0,0,0,0,0,0,0,0,0,0,0,0,0,0,0,0,0,0,0,0,0,0,0,0,0,0,0,0,0,0,0,0,0,0,0,0,0,0,0,0,0,0,0,-0.1246,-0.1246,0,-0.1269,-0.1269,-0.127,-0.1272,-0.1272,-0.1272,-0.1272,-0.1295,-0.1296,-0.1297,0,0,0,0,0,0,0,0,0,0,0,0,0,-0.1206,-0.1207,-0.1246,-0.1246,-0.1247,-0.1269,-0.1269,-0.127,-0.1272,-0.1272,-0.1272,-0.1272,-0.1295,-0.1296,-0.1297,0,0,0,0,0,0,0,0,0,0,0,0,0,-0.1226,-0.1207,-0.1246,-0.1251,-0.1251,-0.1269,-0.1269,-0.127,-0.1272,-0.1272,-0.1272,-0.1271,-0.1294,-0.1296,-0.1297,-0.1311,0,0,-0.1301,-0.1301,0,0,0,0,0,0,0,0,-0.1225,-0.1227,-0.125,-0.125,-0.1251,-0.1267,-0.1264,-0.1284,-0.1272,-0.1264,-0.1272,-0.1271,-0.1286,-0.1288,-0.1293,-0.1312,-0.1313,-0.1301,-0.1302,-0.1302,-0.1302,0,0,0,0,0,0,0,-0.1223,-0.1226,-0.1255,-0.125,-0.1251,-0.1252,-0.1255,-0.1268,-0.1277,-0.1265,-0.1265,-0.1268,-0.1286,-0.1292,-0.1294,-0.1314,-0.1301,-0.1302,-0.1303,-0.1303,-0.1348,-0.1348,0,0,0,0,0,0,-0.1221,-0.1225,-0.1255,-0.1256,-0.1237,-0.1253,-0.1256,-0.1263,-0.1277,-0.1279,-0.1268,-0.1268,-0.129,-0.1292,-0.1294,-0.1314,-0.1302,-0.1303,-0.1304,-0.1347,-0.1348,-0.1349,0,0,0,0,0,0,-0.122,-0.1223,-0.1254,-0.1241,-0.1244,-0.1254,-0.1262,-0.1263,-0.1269,-0.1279,-0.1281,-0.1272,-0.129,-0.1293,-0.1308,-0.1314,-0.1304,-0.1305,-0.1347,-0.1348,-0.1348,-0.1351,0,0,0,0,0,0,-0.1219,-0.1223,-0.1228,-0.1241,-0.1245,-0.1266,-0.1262,-0.1264,-0.1271,-0.1271,-0.1283,-0.1285,-0.129,-0.1306,-0.1309,-0.1316,-0.1306,-0.1346,-0.1347,-0.1348,-0.135,-0.1352,-0.1353,0,0,0,0,0,-0.1217,-0.1228,-0.1229,-0.1232,-0.1252,-0.1266,-0.1269,-0.1274,-0.1271,-0.1277,-0.1284,-0.1284,-0.1313,-0.1307,-0.1311,-0.1318,-0.1346,-0.1347,-0.1348,-0.135,-0.1351,-0.1353,0,0,0,0,0,0,-0.1216,-0.1229,-0.123,-0.1245,-0.1255,-0.1267,-0.1274,-0.1276,-0.1286,-0.1285,-0.1292,-0.1294,-0.1309,-0.1315,-0.1308,-0.1334,-0.1329,-0.1331,-0.1329,-0.1331,-0.1332,-0.1331,-0.1307,0,0,0,0,0,-0.1217,-0.1227,-0.1239,-0.1251,-0.1256,-0.1264,-0.127,-0.1274,-0.1284,-0.1288,-0.1296,-0.1306,-0.1317,-0.1324,-0.1335,-0.1351,-0.1355,-0.1358,-0.136,-0.136,-0.1362,-0.1372,-0.1375,-0.1352,-0.1352,-0.1352,0,0,-0.122,-0.1229,-0.1235,-0.1251,-0.1259,-0.127,-0.1267,-0.1279,-0.1287,-0.129,-0.1304,-0.1311,-0.1322,-0.1338,-0.1345,-0.1343,-0.1369,-0.1362,-0.1362,-0.1364,-0.1374,-0.1376,-0.1378,-0.1352,-0.1352,-0.1352,0,0,-0.1231,-0.1238,-0.125,-0.1258,-0.127,-0.1276,-0.1278,-0.1291,-0.1295,-0.131,-0.1312,-0.1323,-0.1342,-0.135,-0.1357,-0.1373,-0.1375,-0.1377,-0.1383,-0.1393,-0.1395,-0.1397,-0.1404,-0.1406,-0.1378,-0.1378,-0.1378,0,-0.1233,-0.125,-0.1255,-0.1267,-0.1275,-0.1278,-0.129,-0.1298,-0.1312,-0.1318,-0.1315,-0.134,-0.1348,-0.1367,-0.1371,-0.1376,-0.138,-0.1375,-0.1394,-0.1396,-0.1398,-0.1404,-0.1407,-0.1378,-0.1378,-0.1378,-0.1378,0,-0.1253,-0.1264,-0.1272,-0.1287,-0.1295,-0.1307,-0.1315,-0.1323,-0.1326,-0.1332,-0.1348,-0.1358,-0.1372,-0.1376,-0.1379,-0.1396,-0.1394,-0.1393,-0.1389,-0.14,-0.1406,-0.1409,-0.1379,-0.1379,-0.1378,-0.1378,0,0,-0.1263,-0.1281,-0.1284,-0.1292,-0.1306,-0.1315,-0.1328,-0.1341,-0.1348,-0.1359,-0.137,-0.1387,-0.1386,-0.1394,-0.1398,-0.1407,-0.1421,-0.1405,-0.1405,-0.1408,-0.1441,-0.1443,-0.1445,-0.1421,-0.1422,-0.1422,-0.1441,0,-0.1276,-0.1299,-0.1305,-0.1324,-0.1335,-0.1339,-0.135,-0.1361,-0.1367,-0.1378,-0.1385,-0.1398,-0.1395,-0.14,-0.1409,-0.1417,-0.1427,-0.1416,-0.1433,-0.1433,-0.1431,-0.1449,-0.145,-0.1467,-0.1443,-0.1443,-0.1444,0,-0.1295,-0.1306,-0.1327,-0.1341,-0.1346,-0.1356,-0.1369,-0.138,-0.1392,-0.1396,-0.1406,-0.1409,-0.1423,-0.1418,-0.1438,-0.143,-0.1437,-0.1443,-0.1443,-0.1446,-0.144,-0.1452,-0.1472,-0.1475,-0.1448,-0.1447,-0.1447,0,-0.1301,-0.1322,-0.1337,-0.1343,-0.136,-0.1367,-0.1374,-0.1386,-0.1394,-0.1406,-0.1412,-0.1425,-0.1433,-0.1444,-0.1451,-0.1446,-0.1471,-0.1466,-0.1476,-0.1476,-0.1481,-0.1481,-0.1503,-0.1484,-0.1484,-0.1484,-0.1484,0,-0.1316,-0.1329,-0.1341,-0.135,-0.1365,-0.1372,-0.1387,-0.1394,-0.1405,-0.1416,-0.142,-0.1431,-0.144,-0.1452,-0.1458,-0.1475,-0.1478,-0.1482,-0.1484,-0.1482,-0.1482,-0.1487,-0.1487,-0.1485,-0.1485,-0.1485,-0.1485,0,-0.1326,-0.1334,-0.1351,-0.1366,-0.137,-0.138,-0.1393,-0.1403,-0.141,-0.1425,-0.1429,-0.144,-0.1454,-0.1463,-0.1481,-0.1485,-0.1504,-0.1505,-0.15,-0.1501,-0.1511,-0.151,-0.1538,-0.1543,-0.152,-0.152,-0.1521,0,-0.1335,-0.1345,-0.1361,-0.1369,-0.1377,-0.1389,-0.1398,-0.1406,-0.1415,-0.1431,-0.1439,-0.1454,-0.1467,-0.149,-0.15,-0.1515,-0.1516,-0.1525,-0.1519,-0.1517,-0.1518,-0.1518,-0.1519,-0.1527,-0.1527,-0.1527,-0.1527,0,-0.1351,-0.1355,-0.1367,-0.1382,-0.1392,-0.1404,-0.1416,-0.1422,-0.1432,-0.1442,-0.1458,-0.1468,-0.1487,-0.1503,-0.1518,-0.1526,-0.1529,-0.1529,-0.1532,-0.1531,-0.1529,-0.1532,-0.1504,-0.1529,-0.1528,-0.1528,-0.1528,-0.1528,-0.1361,-0.1371,-0.1384,-0.1398,-0.1408,-0.1419,-0.143,-0.1438,-0.1451,-0.1468,-0.1472,-0.1489,-0.1502,-0.1523,-0.1532,-0.1546,-0.1544,-0.1548,-0.155,-0.1551,-0.1552,-0.1526,-0.1548,-0.1548,-0.1548,-0.1548,-0.1548,0,-0.1378,-0.1387,-0.14,-0.1417,-0.1428,-0.143,-0.1443,-0.1453,-0.1468,-0.148,-0.1492,-0.1511,-0.1526,-0.1538,-0.1554,-0.1563,-0.1565,-0.1567,-0.1567,-0.1569,-0.1552,-0.1548,-0.1565,-0.1565,-0.1565,-0.1565,-0.1565,-0.1565,-0.1388,-0.1405,-0.1411,-0.1433,-0.1442,-0.1459,-0.1466,-0.1477,-0.1487,-0.1508,-0.1521,-0.1528,-0.1541,-0.1558,-0.1573,-0.1576,-0.1582,-0.1584,-0.1588,-0.1571,-0.157,-0.1568,-0.1564,-0.1585,-0.1585,-0.1604,-0.1604,-0.1604]},{"header":{"parameterUnit":"m.s-1","parameterCategory":1,"la1":30.2991,"la2":30.254,"lo1":-89.0895,"lo2":-89.0444,"dy":0.0017,"dx":0.0017,"nx":28,"ny":28,"refTime":"2025-06-21T09:00:00:Z","depth":0,"parameterNumber":3,"parameterNumberName":"V-component_of_WINDS"},"data":[0,0,0,0,0,0,0,0,0,0,0,0,0,0,0,0,0,0,0,0,0,0,0,0,0,0,0,0,0,0,0,0,0,0,0,0,0,0,0,0,0,0,0,0,0,0,0,0,0,0,0,0,0,0,0,0,0,0,3.7317,3.7317,0,3.7388,3.7389,3.739,3.7356,3.7354,3.7352,3.7351,3.742,3.7424,3.7427,0,0,0,0,0,0,0,0,0,0,0,0,0,3.7145,3.7148,3.7317,3.7318,3.7318,3.7388,3.7389,3.739,3.7356,3.7354,3.7352,3.735,3.7419,3.7423,3.7427,0,0,0,0,0,0,0,0,0,0,0,0,0,3.7218,3.7149,3.7316,3.731,3.731,3.7388,3.7389,3.739,3.7357,3.7354,3.7351,3.7349,3.7418,3.7423,3.7428,3.7515,0,0,3.7444,3.7446,0,0,0,0,0,0,0,0,3.7214,3.7225,3.731,3.7311,3.7311,3.736,3.7354,3.7432,3.7357,3.7339,3.7351,3.7347,3.7402,3.7409,3.7428,3.7518,3.7521,3.7445,3.7448,3.745,3.7452,0,0,0,0,0,0,0,3.7209,3.7221,3.7345,3.7311,3.7312,3.7302,3.7309,3.7369,3.7385,3.734,3.7338,3.7347,3.7402,3.7423,3.7429,3.7522,3.7444,3.7449,3.7452,3.7455,3.7685,3.7688,0,0,0,0,0,0,3.7205,3.7217,3.7343,3.7347,3.7255,3.7307,3.7315,3.7347,3.7384,3.7387,3.7349,3.7345,3.7415,3.7423,3.7432,3.7534,3.745,3.7455,3.7458,3.7682,3.7686,3.7689,0,0,0,0,0,0,3.7201,3.7216,3.734,3.7282,3.7297,3.7313,3.7349,3.735,3.7371,3.7391,3.7393,3.7368,3.7413,3.7424,3.7494,3.7536,3.7457,3.7462,3.7679,3.7683,3.7687,3.7742,0,0,0,0,0,0,3.7197,3.7215,3.725,3.7283,3.73,3.7403,3.7352,3.7353,3.7381,3.7376,3.7409,3.7412,3.7412,3.7486,3.75,3.7542,3.7466,3.7675,3.7681,3.7686,3.7736,3.7747,3.7757,0,0,0,0,0,3.7191,3.7262,3.7252,3.7267,3.7344,3.7406,3.7415,3.7415,3.7384,3.7418,3.7431,3.7411,3.753,3.7494,3.7508,3.7553,3.7672,3.7679,3.7685,3.7731,3.7745,3.7757,0,0,0,0,0,0,3.7233,3.7267,3.7256,3.734,3.7371,3.74,3.7443,3.743,3.7468,3.7462,3.7458,3.7466,3.7538,3.7553,3.7512,3.7638,3.7596,3.7606,3.7626,3.7639,3.7649,3.7644,3.7471,0,0,0,0,0,3.7253,3.7302,3.7328,3.74,3.7415,3.7427,3.7453,3.745,3.7481,3.7493,3.7511,3.754,3.7583,3.7612,3.7654,3.7738,3.7743,3.7776,3.7786,3.7795,3.7803,3.7846,3.786,3.771,3.771,3.771,0,0,3.7293,3.7317,3.7349,3.7409,3.7432,3.7481,3.7438,3.7492,3.7527,3.7501,3.7568,3.7582,3.7614,3.7691,3.7726,3.7705,3.7845,3.7803,3.781,3.7813,3.7854,3.7868,3.7881,3.7715,3.7714,3.7713,0,0,3.7392,3.7416,3.7478,3.7502,3.7537,3.7544,3.7558,3.759,3.7598,3.7666,3.7646,3.7687,3.7763,3.7786,3.7808,3.7913,3.7895,3.7926,3.798,3.8023,3.8034,3.8045,3.808,3.8093,3.7934,3.7935,3.7935,0,3.7437,3.7512,3.7511,3.7566,3.7592,3.7571,3.7632,3.7655,3.7702,3.7719,3.7696,3.7789,3.7809,3.7891,3.7916,3.7935,3.795,3.7922,3.8033,3.8043,3.8053,3.8087,3.81,3.7938,3.7938,3.7937,3.7937,0,3.7565,3.7616,3.7662,3.7708,3.7739,3.7797,3.7803,3.7834,3.7828,3.7836,3.7904,3.7927,3.7972,3.7991,3.7985,3.8071,3.8057,3.8033,3.7991,3.8071,3.8102,3.8115,3.7943,3.7942,3.7941,3.794,0,0,3.7693,3.7737,3.7754,3.7773,3.781,3.7849,3.7905,3.7949,3.7975,3.8008,3.8053,3.8117,3.8095,3.8119,3.8116,3.8153,3.8232,3.8125,3.8125,3.8142,3.8325,3.8341,3.8357,3.8221,3.8223,3.8225,3.8322,0,3.7793,3.7892,3.7892,3.7983,3.8029,3.8009,3.8057,3.8083,3.8092,3.8131,3.814,3.8185,3.8154,3.8168,3.8204,3.8215,3.8268,3.8208,3.8261,3.8263,3.8252,3.8373,3.8392,3.8482,3.8334,3.8336,3.8338,0,3.7923,3.796,3.8056,3.8084,3.8103,3.8147,3.8186,3.8225,3.8253,3.8257,3.8283,3.8273,3.8328,3.8284,3.8357,3.8316,3.8338,3.8346,3.8349,3.8353,3.8304,3.8379,3.851,3.8523,3.8358,3.8356,3.8355,0,3.8005,3.8079,3.8145,3.8163,3.8198,3.8228,3.8244,3.827,3.8296,3.833,3.8346,3.8386,3.8407,3.8437,3.8437,3.8406,3.8511,3.8468,3.8514,3.8514,3.8536,3.8535,3.8671,3.8552,3.8552,3.8552,3.8551,0,3.8116,3.8175,3.8182,3.8223,3.8287,3.8285,3.8348,3.8361,3.8384,3.8425,3.8409,3.8448,3.8446,3.8485,3.8485,3.8544,3.8555,3.8557,3.8557,3.8558,3.8558,3.8572,3.8565,3.8555,3.8554,3.8554,3.8553,0,3.8219,3.8226,3.8297,3.8323,3.8331,3.8377,3.8399,3.8437,3.8444,3.8496,3.8508,3.8518,3.8562,3.8565,3.8617,3.8616,3.8688,3.8681,3.8679,3.8677,3.8722,3.8717,3.8872,3.8891,3.876,3.8762,3.8763,0,3.8289,3.8334,3.8365,3.8392,3.8409,3.8453,3.8479,3.8478,3.8506,3.8541,3.8573,3.8616,3.8651,3.8722,3.8733,3.8771,3.8764,3.8815,3.8769,3.8769,3.8762,3.8759,3.8763,3.8824,3.8825,3.8826,3.8827,0,3.8412,3.8413,3.8452,3.8492,3.8524,3.8556,3.8585,3.8607,3.8609,3.8641,3.8686,3.8713,3.8764,3.8806,3.8843,3.8857,3.8842,3.8842,3.8854,3.8856,3.8852,3.8853,3.8702,3.8838,3.8837,3.8836,3.8835,3.8835,3.8499,3.8537,3.8565,3.8608,3.863,3.8657,3.8693,3.8704,3.8743,3.8785,3.8782,3.8832,3.8856,3.8905,3.8921,3.8959,3.8941,3.8959,3.8964,3.8968,3.8972,3.8847,3.8966,3.8965,3.8965,3.8965,3.8965,0,3.862,3.8636,3.8677,3.8718,3.8751,3.8735,3.8766,3.8795,3.8839,3.8864,3.8898,3.8949,3.8989,3.9002,3.9041,3.9068,3.9062,3.9078,3.9075,3.9078,3.8987,3.8971,3.9082,3.9082,3.9082,3.9082,3.9082,3.9082,3.8687,3.875,3.8753,3.8826,3.8841,3.889,3.8909,3.8933,3.8953,3.9011,3.9044,3.9053,3.9073,3.9112,3.9147,3.915,3.9164,3.9183,3.9183,3.9097,3.9085,3.9074,3.9059,3.9187,3.9187,3.9271,3.9272,3.9272]}]]